Notices

What's New in latest Release from April 7th, 2021:

- Updated Glossary, including Speed of Maximum Gust, and Total Hourly Precipitation

- Updated national and regional climate services offices contacts and prices information

- Addition of station inventory lists for 1981-2010, 1971-2000, and 1961-1990 Normals.

If you haven't already, please take our survey and provide feedback about our website: https://eccc.sondage-survey.ca/f/LanguageSelection.aspx?s=442ca660-fcf1-47c0-95a9-59707d6fd709

Hourly Data Report for October 06, 2006

TORONTO CITY
ONTARIO

43°40'00.000" N
79°24'00.000" W
112.50 m
6158355
71508
XTO

Download Data

Hourly Data (October 2006)
Hourly Data Report for October 6, 2006
TIME
LST
Temp Definition
°C
Dew Point Definition
°C
Rel Hum Definition
%
Precip. Amount Definition
mm

Wind Dir Definition
10's deg

Wind Spd Definition
km/h
Visibility Definition
km
Stn Press Definition
kPa
Hmdx Definition


Wind Chill Definition


Weather Definition


00:00 8.0 2.3 67   LegendMM LegendMM   101.53     LegendNANA
01:00 7.4 2.6 72   LegendMM LegendMM   101.56     LegendNANA
02:00 6.9 2.8 75   LegendMM LegendMM   101.61     LegendNANA
03:00 6.6 2.7 76   LegendMM LegendMM   101.65     LegendNANA
04:00 6.2 2.6 78   LegendMM LegendMM   101.71     LegendNANA
05:00 5.9 2.4 78   LegendMM LegendMM   101.75     LegendNANA
06:00 5.3 2.3 81   LegendMM LegendMM   101.81     LegendNANA
07:00 5.1 2.0 80   LegendMM LegendMM   101.87     LegendNANA
08:00 6.5 2.8 77   LegendMM LegendMM   101.96     LegendNANA
09:00 8.2 3.3 71   LegendMM LegendMM   102.01     LegendNANA
10:00 10.3 3.7 64   LegendMM LegendMM   102.00     LegendNANA
11:00 12.4 4.4 58   LegendMM LegendMM   102.00     LegendNANA
12:00 13.0 3.7 53   LegendMM LegendMM   101.97     LegendNANA
13:00 13.5 5.6 59   LegendMM LegendMM   101.90     LegendNANA
14:00 13.0 4.6 57   LegendMM LegendMM   101.82     LegendNANA
15:00 12.7 5.3 61   LegendMM LegendMM   101.80     LegendNANA
16:00 12.8 2.8 51   LegendMM LegendMM   101.80     LegendNANA
17:00 12.0 4.9 62   LegendMM LegendMM   101.79     LegendNANA
18:00 10.9 6.1 72   LegendMM LegendMM   101.80     LegendNANA
19:00 10.7 6.6 76   LegendMM LegendMM   101.84     LegendNANA
20:00 10.7 6.6 76   LegendMM LegendMM   101.85     LegendNANA
21:00 10.3 6.6 78   LegendMM LegendMM   101.87     LegendNANA
22:00 10.3 6.4 77   LegendMM LegendMM   101.87     LegendNANA
23:00 10.0 6.3 78   LegendMM LegendMM   101.86     LegendNANA

Notes on Data Quality.

Legend

  • E = Estimated
  • M = Missing
  • NA = Not Available*
  • [empty] = Indicates an unobserved value
Date modified: